Regional Weather Roundup
Issued by NWS

Home | Current Version | Previous Version | Text Only | Print | Product List | Glossary On
Versions: 1 2 3 4 5 6 7 8 9 10 11 12 13 14 15 16 17 18 19 20 21 22 23 24 25 26 27
000
ASUS46 KPQR 160510
RWROR

OREGON REGIONAL WEATHER ROUNDUP
NATIONAL WEATHER SERVICE PORTLAND OR
900 PM PST FRI DEC 15 2017

NOTE: "FAIR" INDICATES FEW OR NO CLOUDS BELOW 12,000 FEET WITH
NO SIGNIFICANT WEATHER AND/OR OBSTRUCTIONS TO VISIBILITY.

ORZ001>013-160600-
NORTHWEST OREGON


CITY           SKY/WX    TMP DP  RH WIND       PRES   REMARKS
ASTORIA        PTCLDY    43  38  82 NW7       30.33R
NEWPORT        CLOUDY    46  43  87 N5        30.39S
PORTLAND       LGT RAIN  37  34  89 CALM      30.34S
VANCOUVER WA   CLOUDY    34  34 100 CALM      30.33R FOG
SCAPPOOSE      CLOUDY    33  33 100 W3        30.33S FOG
HILLSBORO      CLOUDY    32  30  92 N3        30.33S FOG
AURORA         MOCLDY    35  34  96 CALM      30.35S FOG
MCMINNVILLE    PTCLDY    33  33 100 N3        30.35S FOG
SALEM          CLOUDY    36  34  92 S3        30.34R FOG
CORVALLIS      CLOUDY    31  30  96 CALM      30.36R FOG
EUGENE         MOCLDY    34  34 100 S5        30.36R FOG     WCI  30
$$

ORZ021-028-160600-
SOUTHWEST OREGON


CITY           SKY/WX    TMP DP  RH WIND       PRES   REMARKS
NORTH BEND     MOCLDY    41  39  93 SE5       30.40R FOG
BROOKINGS      CLEAR     49  37  63 NW10      30.31R
ROSEBURG       FOG       38  38 100 CALM      30.37R VSB 1/4
SEXTON SUMMIT  MOCLDY    32  29  88 VRB3      30.24R
GRANTS PASS    FOG       32  32 100 CALM      30.37R VSB<1/4
MEDFORD        CLOUDY    37  36  96 N3        30.31R
$$

ORZ014>016-041-160600-
COLUMBIA GORGE


CITY           SKY/WX    TMP DP  RH WIND       PRES   REMARKS
TROUTDALE      LGT RAIN  38  36  92 CALM      30.34S FOG
HOOD RIVER     CLEAR     39  34  81 NW3       30.24S
THE DALLES     PTCLDY    42  35  76 NW9       30.23R
$$

ORZ029>031-041-044-049-050-061>064-502-503-505>511-160600-
EASTERN OREGON


CITY           SKY/WX    TMP DP  RH WIND       PRES   REMARKS
MADRAS         MOCLDY   N/A N/A N/A N8        30.22R
REDMOND        PTCLDY    34  26  72 NE7       30.17R WCI  28
BEND           MOCLDY    36  27  69 NW7G13    30.18R WCI  30
PRINEVILLE     PTCLDY    28  27  93 NW6       30.18R WCI  22
KLAMATH FALLS  CLEAR     36  27  69 NW10      30.17R WCI  28
LAKEVIEW       MOCLDY    32  31  96 SW3       30.13R
HERMISTON      CLOUDY    28  28 100 S6        30.18S WCI  22
PENDLETON      CLOUDY    30  28  92 NW5       30.14R WCI  25
JOHN DAY       CLOUDY    33  33  98 W3        30.13R FOG
MEACHAM        MIX PCPN  33  31  92 VRB7      30.07F WCI  27
LA GRANDE      CLOUDY    29  26  89 CALM      30.12S
BAKER CITY     CLOUDY    24  20  84 CALM      30.12S
BURNS          LGT SNOW  25  23  92 N6        30.11F FOG     WCI  18
ROME             N/A     26  24  92 SW5       30.09S WCI  20
ONTARIO        CLOUDY    28  26  92 CALM      30.19S
$$




USA.gov is the U.S. government's official web portal to all federal, state and local government web resources and services.